Location: Burbank
(38.7788°N, 114.0429°W)
Time: 13:50:52
(UTC+00:00)

Vanguard 2 Rocket - Pass Details

Date: 21 May 2026
Orbit: 553 x 3286 km, 32.9° (Epoch: 6 June)

Event Time Altitude Azimuth Distance (km) Brightness Sun altitude
Rises 01:23:18 0° 274° (W) 7,136 13.2 14.2°
Reaches altitude 10° 01:32:21 10° 252° (WSW) 6,230 12.3 12.5°
Maximum altitude 01:39:42 13° 230° (SW) 5,843 11.6 11.2°
Drops below altitude 10° 01:46:46 10° 207° (SSW) 5,862 11.2 9.9°
Sets 01:54:50 0° 184° (S) 6,377 11.1 8.4°
